FW6805 Weather Reports


time (UTC)temp
F
wind
direction
speed
knots
gust
knots
rain 1hr
in
rain 24hr
in
rain mn
in
humidity
%
barometer
mb
20260906212050 89 152 7.0 13.9 0.00 0.00 0.00 49 941.7
20260906211023 88 152 8.7 15.6 0.00 0.00 0.00 52 941.7
20260906210046 88 149 9.6 18.2 0.00 0.00 0.00 52 941.8
20260906205100 88 152 7.8 12.2 0.00 0.00 0.00 51 942.0
20260906204031 87 158 7.8 13.9 0.00 0.00 0.00 50 942.1
20260906203025 86 151 8.7 15.6 0.00 0.00 0.00 53 942.4
20260906202018 85 170 8.7 19.1 0.00 0.00 0.00 55 942.6
20260906201041 84 151 11.3 19.1 0.00 0.00 0.00 60 942.9
20260906200034 84 158 12.2 18.2 0.00 0.00 0.00 61 942.9
20260906195026 83 155 10.4 15.6 0.00 0.00 0.00 64 942.8
20260906194019 83 159 7.8 13.0 0.00 0.00 0.00 64 943.1
20260906193042 82 144 13.0 18.2 0.00 0.00 0.00 66 943.3
20260906192036 82 147 10.4 13.9 0.00 0.00 0.00 67 943.5
20260906191027 80 148 12.2 19.1 0.00 0.00 0.00 70 943.4
20260906190021 82 134 12.2 21.7 0.00 0.00 0.00 67 943.6
20260906185044 85 116 3.5 8.7 0.00 0.00 0.00 63 943.5
20260906184037 85 139 3.5 10.4 0.00 0.00 0.00 64 943.3
20260906183031 85 122 3.5 8.7 0.00 0.00 0.00 64 943.2
20260906182022 84 86 5.2 12.2 0.00 0.00 0.00 65 943.6
20260906181047 84 104 4.3 10.4 0.00 0.00 0.00 64 943.9
20260906180038 84 77 5.2 10.4 0.00 0.00 0.00 64 943.9
20260906175032 83 82 7.0 13.9 0.00 0.00 0.00 65 944.1
20260906174023 82 70 5.2 10.4 0.00 0.00 0.00 65 944.1
20260906173048 82 60 4.3 8.7 0.00 0.00 0.00 66 944.1
20260906172039 82 67 4.3 10.4 0.00 0.00 0.00 67 944.4
20260906171033 81 42 7.8 13.0 0.00 0.00 0.00 68 944.6
20260906170046 81 42 6.1 9.6 0.00 0.00 0.00 69 944.6
20260906165038 80 62 5.2 10.4 0.00 0.00 0.00 72 944.4
20260906164103 80 49 4.3 8.7 0.00 0.00 0.00 74 944.6
20260906163034 79 358 4.3 7.0 0.00 0.00 0.00 77 944.5
20260906162027 76 7 5.2 8.7 0.00 0.00 0.00 80 944.6
20260906161039 75 357 7.8 13.9 0.00 0.00 0.00 80 944.6
20260906160104 78 293 5.2 10.4 0.00 0.00 0.00 78 944.6
20260906155035 78 288 6.1 9.6 0.00 0.00 0.00 80 943.9
20260906154049 76 274 3.5 4.3 0.00 0.00 0.00 81 943.6
20260906153020 76 214 2.6 4.3 0.00 0.00 0.00 81 943.6
20260906152045 77 160 0.9 2.6 0.00 0.00 0.00 80 943.7
20260906151039 77 148 0.9 2.6 0.00 0.00 0.00 78 943.8
20260906150030 75 146 0.9 2.6 0.00 0.00 0.00 82 943.7
20260906145023 75 146 1.7 2.6 0.00 0.00 0.00 81 943.9
20260906144047 75 145 0.0 0.9 0.00 0.00 0.00 82 944.0
20260906143040 73 146 0.9 2.6 0.00 0.00 0.00 84 944.1
20260906142051 72 146 0.9 3.5 0.00 0.00 0.00 86 943.9
20260906141025 71 148 1.7 2.6 0.00 0.00 0.00 87 943.9
20260906140016 70 146 1.7 3.5 0.00 0.00 0.00 87 943.7
20260906135041 69 151 0.9 2.6 0.00 0.00 0.00 89 943.7
20260906134053 68 171 0.0 0.9 0.00 0.00 0.00 90 944.0
20260906133026 68 0.0 0.0 0.00 0.00 0.00 91 944.0
20260906132019 68 0.0 0.0 0.00 0.00 0.00 91 944.0
20260906131042 67 0.0 0.0 0.00 0.00 0.00 92 943.8
20260906130036 67 0.0 0.0 0.00 0.00 0.00 92 943.8
20260906125027 67 0.0 0.0 0.00 0.00 0.00 92 943.8
20260906124020 67 0.0 0.0 0.00 0.00 0.00 92 943.9
20260906123044 67 0.0 0.0 0.00 0.00 0.00 92 943.7
20260906122037 67 0.0 0.0 0.00 0.00 0.00 92 943.6
20260906121028 67 135 0.0 0.9 0.00 0.00 0.00 91 943.4
20260906120022 67 124 1.7 4.3 0.00 0.00 0.00 91 943.4
20260906115045 67 113 0.9 6.1 0.00 0.00 0.00 91 943.6
20260906114039 66 127 0.0 3.5 0.00 0.00 0.00 90 943.8
20260906113032 66 119 0.0 4.3 0.00 0.00 0.00 90 944.1
20260906112023 67 146 0.9 3.5 0.00 0.00 0.00 89 944.1
20260906111108 66 146 0.0 2.6 0.00 0.00 0.00 89 943.9
20260906110040 67 124 0.9 2.6 0.00 0.00 0.00 88 943.6
20260906105033 67 126 0.9 2.6 0.00 0.00 0.00 88 943.7
20260906104024 67 129 0.9 3.5 0.00 0.00 0.00 88 943.8
20260906103018 67 130 0.9 2.6 0.00 0.00 0.00 88 943.7
20260906102041 67 117 1.7 4.3 0.00 0.00 0.00 88 943.8
20260906101034 67 126 1.7 6.1 0.00 0.00 0.00 87 943.6
20260906100026 67 134 0.9 2.6 0.00 0.00 0.00 87 943.5
20260906095019 66 133 0.9 3.5 0.00 0.00 0.00 86 943.6
20260906094104 67 126 0.9 2.6 0.00 0.00 0.00 86 943.6
20260906093035 67 121 1.7 4.3 0.00 0.00 0.00 86 943.7
20260906092029 67 117 1.7 3.5 0.00 0.00 0.00 86 943.5
20260906091020 67 132 0.9 2.6 0.00 0.00 0.00 86 943.6
20260906090045 67 119 0.9 3.5 0.00 0.00 0.00 86 943.7
20260906085036 67 138 0.0 2.6 0.00 0.00 0.00 85 943.7
20260906084030 67 145 0.9 3.5 0.00 0.00 0.00 85 943.8
20260906083021 67 144 1.7 3.5 0.00 0.00 0.00 85 943.6
20260906082047 67 139 0.9 2.6 0.00 0.00 0.00 84 943.5
20260906081040 68 130 0.0 2.6 0.00 0.00 0.00 84 943.5
20260906080031 68 120 0.9 3.5 0.00 0.00 0.00 84 943.3
20260906075024 68 125 0.9 2.6 0.00 0.00 0.00 83 943.4
20260906074056 68 118 0.9 4.3 0.00 0.00 0.00 83 943.3
20260906073041 68 129 0.9 2.6 0.00 0.00 0.00 83 943.4
20260906072033 68 0.0 0.0 0.00 0.00 0.00 82 943.5
20260906071046 69 0.0 0.0 0.00 0.00 0.00 82 943.4
20260906070017 69 111 0.9 4.3 0.00 0.00 0.00 82 943.5
20260906065043 69 129 1.7 3.5 0.00 0.00 0.00 81 943.6
20260906064034 69 133 0.9 3.5 0.00 0.00 0.00 81 943.6
20260906063047 69 120 0.9 4.3 0.00 0.00 0.00 80 943.4
20260906062020 70 129 0.9 2.6 0.00 0.00 0.00 80 943.6
20260906061044 70 133 0.0 2.6 0.00 0.00 0.00 79 943.6
20260906060057 70 128 0.9 2.6 0.00 0.00 0.00 78 943.5
20260906055029 71 106 1.7 3.5 0.00 0.00 0.00 77 943.6
20260906054142 72 124 0.0 2.6 0.00 0.00 0.00 77 943.5
20260906053045 73 136 0.0 0.9 0.00 0.00 0.00 76 943.3
20260906052038 73 119 1.7 3.5 0.00 0.00 0.00 75 943.5
20260906051029 73 112 1.7 4.3 0.00 0.00 0.00 75 943.4
20260906050023 73 112 0.0 2.6 0.00 0.00 0.00 74 943.2
20260906045048 73 138 0.9 0.9 0.00 0.00 0.00 76 943.2
20260906044039 73 140 0.0 0.9 0.00 0.00 0.00 76 943.2
20260906043053 73 142 0.9 3.5 0.00 0.00 0.00 75 943.0
20260906042024 74 149 1.7 3.5 0.00 0.00 0.00 73 943.1
20260906041017 74 132 0.0 2.6 0.00 0.00 0.00 74 943.0
20260906040041 74 131 0.9 3.5 0.00 0.00 0.00 73 943.0
20260906035034 74 144 2.6 6.1 0.00 0.00 0.00 73 943.0
20260906034027 74 157 1.7 4.3 0.00 0.00 0.00 71 943.0
20260906033038 74 153 2.6 6.1 0.00 0.00 0.00 71 942.6
20260906032044 75 152 4.3 7.0 0.00 0.00 0.00 69 942.6
20260906031035 76 153 3.5 6.1 0.00 0.00 0.00 67 942.6
20260906030028 76 143 1.7 4.3 0.00 0.00 0.00 68 942.4
20260906025020 77 149 3.5 4.3 0.00 0.00 0.00 66 942.4
20260906024045 77 155 3.5 6.1 0.00 0.00 0.00 65 942.5
20260906023036 78 146 5.2 8.7 0.00 0.00 0.00 65 942.5
20260906022030 78 144 5.2 7.0 0.00 0.00 0.00 65 942.4
20260906021021 78 139 2.6 4.3 0.00 0.00 0.00 68 942.2
20260906020046 79 142 2.6 4.3 0.00 0.00 0.00 67 941.9
20260906015040 79 145 0.9 2.6 0.00 0.00 0.00 66 941.8
20260906014030 79 0.0 0.0 0.00 0.00 0.00 68 941.7
20260906013024 80 145 0.0 0.9 0.00 0.00 0.00 67 941.5
20260906012017 81 146 0.0 0.9 0.00 0.00 0.00 66 941.6
20260906011040 82 145 0.9 2.6 0.00 0.00 0.00 65 941.7
20260906010034 82 146 2.6 4.3 0.00 0.00 0.00 65 941.7
20260906005025 83 146 2.6 3.5 0.00 0.00 0.00 63 941.7
20260906004018 84 151 3.5 6.1 0.00 0.00 0.00 61 941.8
20260906003041 85 138 5.2 9.6 0.00 0.00 0.00 59 941.9
20260906002054 87 145 7.8 12.2 0.00 0.00 0.00 54 941.9
20260906001028 87 145 7.0 9.6 0.00 0.00 0.00 49 941.9
20260906000019 88 157 5.2 8.7 0.00 0.00 0.00 49 941.7
20260905235105 89 158 6.1 12.2 0.00 0.00 0.00 45 941.7
20260905234036 89 148 9.6 13.9 0.00 0.00 0.00 43 941.9
20260905233029 94 167 4.3 8.7 0.00 0.00 0.00 43 942.0
20260905232020 94 175 4.3 8.7 0.00 0.00 0.00 42 941.9
20260905231046 94 180 4.3 7.0 0.00 0.00 0.00 42 941.7
20260905230037 94 172 2.6 6.1 0.00 0.00 0.00 42 941.8
20260905225030 94 178 3.5 7.0 0.00 0.00 0.00 42 941.7
20260905224024 94 172 3.5 6.1 0.00 0.00 0.00 42 941.4
20260905223047 94 179 1.7 4.3 0.00 0.00 0.00 43 941.3
20260905222100 94 189 2.6 3.5 0.00 0.00 0.00 43 941.3
20260905221031 96 198 1.7 6.1 0.00 0.00 0.00 41 941.3
20260905220044 96 176 3.5 8.7 0.00 0.00 0.00 42 941.6
20260905215016 95 176 3.5 6.1 0.00 0.00 0.00 43 941.7
20260905214041 95 183 3.5 8.7 0.00 0.00 0.00 43 941.9
20260905213032 95 173 3.5 6.1 0.00 0.00 0.00 43 942.1